292  
ASUS44 KLIX 051015  
RWRLIX  
NEW ORLEANS REGIONAL WEATHER ROUNDUP  
NATIONAL WEATHER SERVICE NEW ORLEANS LA  
400 AM CST FRI MAR 05 2021  
 
NOTE: "FAIR" INDICATES FEW OR NO CLOUDS BELOW 12,000 FEET WITH NO  
SIGNIFICANT WEATHER AND/OR S TO VISIBILITY
.  
SKY/WX - SKY CONDITION AND SIGNIFICANT WEATHER.  
TMP - AIR TEMPERATURE. DP - DEWPOINT TEMPERATURE.  
RH - RELATIVE HUMIDITY. PRES - PRESSURE.  
HI - HEAT INDEX. WCI - WIND CHILL INDEX.  
 
* THESE STATIONS ARE NOT NWS OR FAA STATIONS AND ARE NOT UNDER  
NWS QUALITY CONTROL.  
 
LAZ038-040-048-061>063-065>067-069-051100-  
SOUTHEAST LOUISIANA  
 
CITY SKY/WX TMP DP RH WIND PRES REMARKS
 
N.O. INTL ARPT PTCLDY 51 46 83 CALM 30.03R  
N.O. DWNTWN HE FAIR 55 48 77 N6 30.04S  
N.O. LAKEFRONT PTCLDY 57 50 77 N5 30.04S  
RESERVE* FAIR 48 47 95 CALM 30.03F  
SLIDELL PTCLDY 43 40 89 N3 30.03F  
BATON ROUGE PTCLDY 47 42 83 CALM 30.02F  
BOOTHVILLE* MOSUNNY 47 46 95 CALM 30.04F  
BELLE CHASSE* PTCLDY 46 46 100 CALM 30.02F FOG  
BOGALUSA* FAIR 42 39 90 N3 30.05S  
GALLIANO* MOSUNNY 46 45 93 CALM 30.02S  
NEW ROADS* FAIR 44 43 97 MISG 30.04R  
GONZALES* FAIR 47 46 96 CALM 30.02F  
HAMMOND* PTCLDY 43 41 93 CALM 30.04F  
HOUMA* PTCLDY 49 48 97 CALM 30.03R  
 

 
 
MSZ070-077-080>082-051100-  
SOUTHERN MISSISSIPPI  
 
CITY SKY/WX TMP DP RH WIND PRES REMARKS
 
MCCOMB PTCLDY 44 41 89 CALM 30.02F  
PICAYUNE* MOSUNNY 43 37 81 CALM N/A  
GULFPORT PTCLDY 44 40 85 CALM 30.03F  
BILOXI PTCLDY 47 43 87 NE3 30.03S  
PASCAGOULA CLEAR 41 40 96 CALM 30.04R  
 

 
 
COASTAL OBSERVATIONS  
LAKE AND NEARSHORE STATIONS  
 
STATION/POSITION TIME SKY/WX TEMP WIND PRES WAVE
 
AIR SEA DIR/SP/G HT/PER  
(UTC) (F) (DEG/KT/KT) (MB) (FT/S)  
WAVELAND YACHT 0924 55 59 340/ 2/ 2 N/A  
GRAND ISLE 0930 62 N/A  
SOUTHWEST PASS 0924 51 45 40/ 8/ 9 N/A  
NEW CANAL 0924 54 59 60/ 2/ 2 1015.9  
SHELL BEACH 0924 57 63 360/ 4/ 5 1016.8  
 
OFFSHORE STATIONS  
 
STATION/POSITION TIME SKY/WX TEMP WIND PRES WAVE
 
AIR SEA DIR/SP/G HT/PER  
(UTC) (F) (DEG/KT/KT) (MB) (FT/S)  
LA OFFSHORE OIL 0938 59 60/ 7/ 8 1017.1 1  
 

 
 
 
 
CLICK HERE TO GO TO PREVIOUS BULLETINS.

The Nexlab LA Page
The Nexlab MS Page Main Text Page